STARLINK-1797 (46698 NORAD) Tracking and Keplerian Element Data

This shows tracking and keplerian element data for the satellite.

Feedback or suggestion? Click here.




ElementValue
Catalog46698
NameSTARLINK-1797
Epoch Orbit669
Epoch Day332.16667824
Epoch Year2020
RAAN274.2255
Inclination53.0563
Eccentricity0.0001129
Argument of Perigee73.37
Mean Anonmoly269.0584
Mean Motion15.62789313
Decay Rate-0.00072284
L11 46698U 20073AE 20332.16667824 -.00072284 00000-0 -78953-3 0 9995
L22 46698 53.0563 274.2255 0001129 73.3700 269.0584 15.62789313 6697

Live tracking and technical data element details for STARLINK-1797 (NORAD 46698). STARLINK-1797 can be tracked NOW for your location showing map with azimuth and elevation plus other details from your city location.

Track the satellite on the map from your city or location and see movement details for azimuth, elevation, latitude, longitude, range, height, and movement on the map or in text.







IsCatalogInMostPopularTable: catalog: 46698, numindb: 9
Update: records affected: 1



GetName: 46698 STARLINK-1797

Hit Count: updated at: Fri, 27 Nov 2020 14:40:23 GMT